Tracking 19219 objects as of 19-Jul-2018
HD Live streaming from Space Station
objects crossing your sky now

FENGYUN 1C DEB

Track FENGYUN 1C DEB now!
10-day predictions


NORAD ID: 36270
Int'l Code: 1999-025DWX
Perigee: 800.9 km
Apogee: 904.1 km
Inclination: 99.1 °
Period: 101.8 minutes
Semi major axis: 7223 km
RCS: 0.0044 m2 (small)
Launch date: May 10, 1999
Source: People's Republic of China (PRC)
Launch site: Taiyaun Space Center, China (TSC)

Note: This is SATELLITE DEBRIS
aabbcc
Your satellite tracking list
Your tracking list is empty




NASA's NSSDC Master Catalog

Two Line Element Set (TLE):
1 36270U 99025DWX 18196.07351186 +.00000706 +00000-0 +38566-3 0  9993
2 36270 099.0518 244.7964 0071441 265.9635 093.3369 14.14098731537366
Source of the keplerian elements: AFSPC